FW6216 Weather Reports


Display with metric or nautical units.
time (UTC)temp
F
wind
direction
speed
MPH
gust
MPH
rain 1hr
in
rain 24hr
in
rain mn
in
humidity
%
barometer
mb
20260506123032 47 183 2.0 5.0 0.00 0.00 0.00 91 1018.4
20260506121531 47 157 0.0 3.0 0.00 0.00 0.00 91 1018.4
20260506120037 47 157 0.0 3.0 0.00 0.00 0.00 91 1018.3
20260506114530 47 157 2.0 4.0 0.00 0.00 0.00 90 1018.1
20260506113035 47 157 0.0 3.0 0.00 0.00 0.00 90 1018.1
20260506111610 47 247 0.0 0.0 0.00 0.00 0.00 88 1017.9
20260506104536 48 247 1.0 3.0 0.00 0.00 0.00 88 1017.7
20260506103036 48 243 2.0 3.0 0.00 0.00 0.00 88 1017.6
20260506100053 49 161 1.0 3.0 0.00 0.00 0.00 88 1017.6
20260506093108 49 157 3.0 4.0 0.00 0.00 0.00 88 1017.6
20260506091534 49 157 1.0 4.0 0.00 0.00 0.00 88 1017.6
20260506090030 49 157 1.0 3.0 0.00 0.00 0.00 88 1017.5
20260506084530 49 167 1.0 3.0 0.00 0.00 0.00 87 1017.3
20260506071532 52 276 2.0 3.0 0.00 0.00 0.00 84 1016.8
20260506061531 54 157 1.0 3.0 0.00 0.00 0.00 80 1016.3
20260506044531 58 157 1.0 3.0 0.00 0.00 0.00 73 1015.7
20260506043107 59 235 0.0 3.0 0.00 0.00 0.00 71 1015.5
20260506041535 60 256 0.0 2.0 0.00 0.00 0.00 69 1015.3
20260506040043 61 247 1.0 3.0 0.00 0.00 0.00 67 1015.2
20260506031530 65 168 0.0 3.0 0.00 0.00 0.00 62 1014.5
20260506030037 68 73 5.0 9.0 0.00 0.00 0.00 59 1014.2
20260506024649 69 71 5.0 8.0 0.00 0.00 0.00 57 1014.1
20260506021535 70 75 5.0 8.0 0.00 0.00 0.00 55 1014.0
20260506013032 74 32 5.0 10.0 0.00 0.00 0.00 50 1013.8
20260506010030 76 13 5.0 10.0 0.00 0.00 0.00 47 1013.6
20260506003035 78 14 6.0 11.0 0.00 0.00 0.00 41 1013.5
20260506000032 79 9 4.0 9.0 0.00 0.00 0.00 41 1013.6
20260505234535 79 18 5.0 11.0 0.00 0.00 0.00 40 1013.8
20260505233036 79 13 5.0 10.0 0.00 0.00 0.00 41 1013.9
20260505230032 79 25 5.0 10.0 0.00 0.00 0.00 41 1014.0
20260505223030 78 9 4.0 9.0 0.00 0.00 0.00 42 1014.4
20260505220036 78 11 5.0 10.0 0.00 0.00 0.00 43 1014.5
20260505214532 78 350 4.0 9.0 0.00 0.00 0.00 43 1014.6
20260505213032 77 13 4.0 9.0 0.00 0.00 0.00 43 1014.7
20260505211535 77 39 4.0 9.0 0.00 0.00 0.00 44 1014.8
20260505210036 77 45 4.0 10.0 0.00 0.00 0.00 45 1015.0
20260505204532 77 24 4.0 9.0 0.00 0.00 0.00 44 1015.1
20260505203039 78 21 3.0 10.0 0.00 0.00 0.00 45 1015.2
20260505201534 78 11 4.0 11.0 0.00 0.00 0.00 45 1015.2
20260505200038 78 5 5.0 10.0 0.00 0.00 0.00 46 1015.3
20260505194609 77 34 3.0 10.0 0.00 0.00 0.00 46 1015.3
20260505193029 77 11 3.0 10.0 0.00 0.00 0.00 47 1015.4
20260505190029 75 48 3.0 8.0 0.00 0.00 0.00 50 1015.6
20260505184529 74 17 4.0 9.0 0.00 0.00 0.00 50 1015.7
20260505183035 73 28 3.0 8.0 0.00 0.00 0.00 54 1015.8
20260505181531 70 33 4.0 9.0 0.00 0.00 0.00 57 1015.7
20260505180040 69 33 4.0 10.0 0.00 0.00 0.00 58 1015.7
20260505180032 69 58 4.0 10.0 0.00 0.00 0.00 58 1015.7
20260505173035 68 22 3.0 8.0 0.00 0.00 0.00 59 1015.6
20260505171532 68 27 4.0 9.0 0.00 0.00 0.00 58 1015.5
20260505164609 69 49 3.0 7.0 0.00 0.00 0.00 59 1015.6
20260505163035 67 32 3.0 8.0 0.00 0.00 0.00 61 1015.6
20260505161654 66 17 3.0 7.0 0.00 0.00 0.00 64 1015.6
20260505153034 64 5 3.0 6.0 0.00 0.00 0.00 68 1015.3
20260505151606 64 358 2.0 5.0 0.00 0.00 0.00 69 1015.3
20260505140107 52 229 1.0 2.0 0.00 0.00 0.00 85 1014.8
20260505130143 48 246 0.0 4.0 0.00 0.00 0.00 85 1014.1